Myrtle Beach, SC

2:27 AM EDT on March 30, 2017 (GMT -0400)
Myrtle Beach International

Weather History for KMYR - April, 2013

Change the Weather History Date:

Thursday, April 11, 2013

  Actual Average Record
Temperature  
Mean Temperature 70 °F -  
Max Temperature 77 °F 69 °F 82 °F (1950)
Min Temperature 64 °F 51 °F 36 °F (1996)
Cooling Degree Days 6    
Growing Degree Days 20 (Base 50)    
Moisture  
Dew Point 65 °F    
Average Humidity 88    
Maximum Humidity 100    
Minimum Humidity 73    
Precipitation  
Precipitation 0.00 in - - ()
Sea Level Pressure  
Sea Level Pressure 29.99 in    
Wind  
Wind Speed 9 mph (SSW)    
Max Wind Speed 21 mph    
Max Gust Speed 25 mph    
Visibility 10 miles    
Events      
Averages and records for this station are not official NWS values.
T = Trace of Precipitation, MM = Missing Value Source: NWS Daily Summary

Daily Weather History Graph

Daily Weather History Graph

Search for Another Location

Airport or City:

Trip Planner

Search our weather history database for the weather conditions in past years. The results will help you decide how hot, cold, wet, or windy it might be!

Date:

Astronomy

Apr. 11, 2013 Rise Set
Actual Time 6:49 AM EDT 7:43 PM EDT
Civil Twilight 6:24 AM EDT 8:09 PM EDT
Nautical Twilight 5:54 AM EDT 8:39 PM EDT
Astronomical Twilight 5:23 AM EDT 9:10 PM EDT
Moon 7:24 AM EDT (4/11) 9:11 PM EDT (4/11)
Length of Visible Light 13h 44m
Length of Day
12h 54m
New Moon, 2% of the Moon is Illuminated
Apr 11
New Moon
Apr 18
First Quarter
Apr 25
Full
May 2
Last Quarter
May 9
New

Hourly Weather History & Observations

Time (EDT) Temp. Dew Point Humidity Pressure Visibility Wind Dir Wind Speed Gust Speed Precip Events Conditions
12:15 AM 66.2 °F 62.6 °F 88% 30.05 in 10.0 mi South 6.9 mph - N/A   Clear
12:35 AM 66.2 °F 62.6 °F 88% 30.05 in 10.0 mi South 8.1 mph - N/A   Clear
12:55 AM 66.2 °F 62.6 °F 88% 30.04 in 10.0 mi South 8.1 mph - N/A   Clear
1:15 AM 66.2 °F 62.6 °F 88% 30.04 in 10.0 mi South 8.1 mph - N/A   Clear
1:35 AM 64.4 °F 62.6 °F 94% 30.04 in 10.0 mi SSW 6.9 mph - N/A   Clear
1:55 AM 64.4 °F 62.6 °F 94% 30.03 in 10.0 mi South 5.8 mph - N/A   Clear
2:15 AM 64.4 °F 62.6 °F 94% 30.03 in 10.0 mi SSW 4.6 mph - N/A   Clear
2:35 AM 64.4 °F 62.6 °F 94% 30.03 in 10.0 mi South 3.5 mph - N/A   Clear
2:55 AM 64.4 °F 62.6 °F 94% 30.02 in 10.0 mi South 4.6 mph - N/A   Partly Cloudy
3:15 AM 64.4 °F 62.6 °F 94% 30.02 in 10.0 mi South 5.8 mph - N/A   Clear
3:35 AM 64.4 °F 62.6 °F 94% 30.01 in 10.0 mi South 5.8 mph - N/A   Clear
3:55 AM 64.4 °F 62.6 °F 94% 30.01 in 10.0 mi South 5.8 mph - N/A   Clear
4:15 AM 64.4 °F 62.6 °F 94% 30.01 in 10.0 mi South 4.6 mph - N/A   Partly Cloudy
4:35 AM 64.4 °F 62.6 °F 94% 30.02 in 10.0 mi South 4.6 mph - N/A   Clear
4:55 AM 64.4 °F 62.6 °F 94% 30.02 in 10.0 mi SSW 5.8 mph - N/A   Clear
5:15 AM 64.4 °F 62.6 °F 94% 30.01 in 10.0 mi South 5.8 mph - N/A   Clear
5:35 AM 64.4 °F 62.6 °F 94% 30.01 in 10.0 mi South 4.6 mph - N/A   Clear
5:50 AM 64.4 °F 62.6 °F 94% 30.01 in 10.0 mi SSW 8.1 mph - N/A   Clear
6:50 AM 64.4 °F 62.6 °F 94% 30.01 in 8.0 mi SW 8.1 mph - N/A   Partly Cloudy
7:20 AM 64.4 °F 64.4 °F 100% 30.02 in 8.0 mi SSW 9.2 mph - N/A   Scattered Clouds
8:45 AM 69.8 °F 66.2 °F 88% 30.03 in 10.0 mi SSW 6.9 mph - N/A   Scattered Clouds
9:21 AM 69.8 °F 66.2 °F 88% 30.04 in 10.0 mi SSW 9.2 mph - N/A   Mostly Cloudy
9:50 AM 73.4 °F 68.0 °F 83% 30.03 in 8.0 mi SSW 8.1 mph - N/A   Mostly Cloudy
10:50 AM 73.4 °F 68.0 °F 83% 30.03 in 10.0 mi SSW 16.1 mph - N/A   Mostly Cloudy
11:28 AM 75.2 °F 68.0 °F 78% 30.02 in 10.0 mi SSW 16.1 mph - N/A   Scattered Clouds
11:45 AM 77.0 °F 68.0 °F 74% 30.02 in 10.0 mi South 10.4 mph 17.3 mph N/A   Mostly Cloudy
12:45 PM 77.0 °F 68.0 °F 74% 30.01 in 10.0 mi South 17.3 mph 23.0 mph N/A   Mostly Cloudy
1:45 PM 77.0 °F 68.0 °F 74% 29.97 in 10.0 mi South 16.1 mph - N/A   Scattered Clouds
2:45 PM 75.2 °F 66.2 °F 73% 29.95 in 10.0 mi South 18.4 mph - N/A   Scattered Clouds
3:45 PM 75.2 °F 68.0 °F 78% 29.92 in 10.0 mi South 18.4 mph 25.3 mph N/A   Scattered Clouds
5:45 PM 71.6 °F 66.2 °F 83% 29.90 in 10.0 mi SSW 20.7 mph 25.3 mph N/A   Scattered Clouds
6:50 PM 69.8 °F 64.4 °F 83% 29.90 in 10.0 mi South 18.4 mph - N/A   Overcast
8:55 PM 68.0 °F 64.4 °F 88% 29.89 in 10.0 mi South 17.3 mph - N/A   Mostly Cloudy
9:50 PM 69.8 °F 66.2 °F 88% 29.89 in 10.0 mi South 17.3 mph - N/A   Mostly Cloudy
10:55 PM 69.8 °F 66.2 °F 88% 29.90 in 10.0 mi South 13.8 mph 19.6 mph N/A   Clear
11:15 PM 69.8 °F 66.2 °F 88% 29.90 in 10.0 mi South 13.8 mph - N/A   Clear
11:35 PM 68.0 °F 66.2 °F 94% 29.89 in 10.0 mi South 11.5 mph - N/A   Clear
11:55 PM 68.0 °F 64.4 °F 88% 29.89 in 10.0 mi South 10.4 mph - N/A   Scattered Clouds